Weather History for Monroe, MI

Change the Weather History Date:

Wednesday, February 20, 2013

  Actual Average Record
Temperature  
Mean Temperature 22 °F -  
Max Temperature 24 °F 37 °F 60 °F (1943)
Min Temperature 19 °F 21 °F -7 °F (1934)
Degree Days  
Heating Degree Days 44    
Moisture  
Dew Point 12 °F    
Average Humidity 66    
Maximum Humidity 86    
Minimum Humidity 54    
Precipitation  
Precipitation 0.00 in - - ()
Sea Level Pressure  
Sea Level Pressure 30.09 in    
Wind  
Wind Speed 16 mph (WNW)    
Max Wind Speed 22 mph    
Max Gust Speed 29 mph    
Visibility 9 miles    
Events Snow    
Averages and records for this station are not official NWS values.
T = Trace of Precipitation, MM = Missing Value Source: NWS Daily Summary

Daily Weather History Graph

Daily Weather History Graph

Search for Another Location

Airport:

Trip Planner

Search our weather history database for the weather conditions in past years. The results will help you decide how hot, cold, wet, or windy it might be!

Date:

Astronomy

Feb. 20, 2013 Rise Set
Actual Time 7:22 AM EST 6:13 PM EST
Civil Twilight 6:53 AM EST 6:41 PM EST
Nautical Twilight 6:21 AM EST 7:14 PM EST
Astronomical Twilight 5:49 AM EST 7:46 PM EST
Moon 1:30 PM EST (2/20) 3:44 AM EST (2/20)
Length of Visible Light 11h 47m
Length of Day
10h 51m
Waxing Gibbous, 76% of the Moon is Illuminated
Feb 20
Waxing Gibbous
Feb 25
Full
Mar 4
Last Quarter
Mar 11
New
Mar 19
First Quarter

Hourly Weather History & Observations

Time (EST) Temp. Windchill Dew Point Humidity Pressure Visibility Wind Dir Wind Speed Gust Speed Precip Events Conditions
12:34 AM 19.4 °F 4.5 °F 15.8 °F 86% 29.94 in 7.0 mi WSW 17.3 mph 23.0 mph N/A Snow Light Snow
1:34 AM 19.4 °F 6.6 °F 15.8 °F 86% 29.96 in 4.0 mi West 12.7 mph - N/A Snow Light Snow
2:14 AM 21.2 °F 7.3 °F 15.8 °F 80% 29.97 in 7.0 mi West 16.1 mph 24.2 mph N/A Snow Light Snow
2:35 AM 21.2 °F 6.0 °F 15.8 °F 80% 29.97 in 4.0 mi West 19.6 mph - N/A Snow Light Snow
3:15 AM 21.2 °F 6.8 °F 14.0 °F 74% 29.98 in 10.0 mi West 17.3 mph 21.9 mph N/A   Overcast
3:35 AM 21.2 °F 7.3 °F 12.2 °F 68% 29.98 in 10.0 mi West 16.1 mph 23.0 mph N/A Snow Light Snow
3:55 AM 21.2 °F 6.8 °F 12.2 °F 68% 29.98 in 10.0 mi West 17.3 mph 25.3 mph N/A   Overcast
4:15 AM 19.4 °F 5.5 °F 12.2 °F 74% 29.99 in 10.0 mi West 15.0 mph 23.0 mph N/A   Overcast
4:35 AM 21.2 °F 6.4 °F 12.2 °F 68% 30.00 in 10.0 mi West 18.4 mph 25.3 mph N/A   Overcast
4:55 AM 19.4 °F 3.6 °F 12.2 °F 74% 30.01 in 10.0 mi West 19.6 mph 27.6 mph N/A   Overcast
5:15 AM 19.4 °F 3.2 °F 12.2 °F 74% 30.01 in 10.0 mi West 20.7 mph 28.8 mph N/A   Overcast
5:35 AM 19.4 °F 2.8 °F 14.0 °F 80% 30.03 in 7.0 mi West 21.9 mph 26.5 mph N/A Snow Light Snow
5:56 AM 19.4 °F 6.0 °F 15.8 °F 86% 30.04 in 1.8 mi NW 13.8 mph 18.4 mph N/A Snow Light Snow
6:11 AM 19.4 °F 6.6 °F 14.0 °F 80% 30.04 in 10.0 mi NW 12.7 mph 18.4 mph N/A Snow Light Snow
6:31 AM 19.4 °F 5.0 °F 10.4 °F 68% 30.05 in 10.0 mi WNW 16.1 mph 24.2 mph N/A   Overcast
7:11 AM 19.4 °F 6.0 °F 10.4 °F 68% 30.06 in 10.0 mi West 13.8 mph 19.6 mph N/A   Overcast
7:31 AM 19.4 °F 4.1 °F 10.4 °F 68% 30.06 in 10.0 mi West 18.4 mph 25.3 mph N/A   Scattered Clouds
8:11 AM 19.4 °F 3.6 °F 10.4 °F 68% 30.07 in 10.0 mi West 19.6 mph 23.0 mph N/A   Clear
8:31 AM 19.4 °F 4.5 °F 10.4 °F 68% 30.08 in 10.0 mi West 17.3 mph 24.2 mph N/A   Clear
9:12 AM 21.2 °F 6.0 °F 10.4 °F 63% 30.09 in 10.0 mi WNW 19.6 mph 26.5 mph N/A   Mostly Cloudy
9:32 AM 21.2 °F 6.8 °F 10.4 °F 63% 30.09 in 10.0 mi WNW 17.3 mph 23.0 mph N/A   Mostly Cloudy
10:12 AM 21.2 °F 7.3 °F 8.6 °F 58% 30.09 in 10.0 mi WNW 16.1 mph 27.6 mph N/A   Overcast
10:32 AM 21.2 °F 6.4 °F 8.6 °F 58% 30.10 in 10.0 mi West 18.4 mph 26.5 mph N/A   Overcast
10:52 AM 21.2 °F 7.3 °F 8.6 °F 58% 30.11 in 10.0 mi WNW 16.1 mph 25.3 mph N/A   Overcast
11:12 AM 23.0 °F 10.1 °F 8.6 °F 54% 30.11 in 10.0 mi West 15.0 mph 26.5 mph N/A   Overcast
11:32 AM 23.0 °F 8.7 °F 10.4 °F 59% 30.12 in 10.0 mi WNW 18.4 mph 27.6 mph N/A   Overcast
11:52 AM 23.0 °F 10.1 °F 10.4 °F 59% 30.13 in 10.0 mi WNW 15.0 mph 20.7 mph N/A   Overcast
12:13 PM 24.8 °F 11.9 °F 10.4 °F 54% 30.13 in 10.0 mi WNW 16.1 mph 20.7 mph N/A   Overcast
12:33 PM 24.8 °F 12.9 °F 12.2 °F 59% 30.13 in 7.0 mi WNW 13.8 mph - N/A   Overcast
12:53 PM 23.0 °F 10.6 °F 12.2 °F 63% 30.14 in 7.0 mi WNW 13.8 mph - N/A   Overcast
1:13 PM 24.8 °F 10.7 °F 10.4 °F 54% 30.14 in 10.0 mi West 19.6 mph - N/A   Overcast
1:33 PM 24.8 °F 11.9 °F 10.4 °F 54% 30.14 in 10.0 mi WNW 16.1 mph 24.2 mph N/A   Overcast
1:53 PM 24.8 °F 11.9 °F 10.4 °F 54% 30.14 in 10.0 mi WNW 16.1 mph 23.0 mph N/A   Overcast
2:13 PM 24.8 °F 12.4 °F 12.2 °F 59% 30.14 in 10.0 mi West 15.0 mph - N/A   Overcast
2:33 PM 24.8 °F 10.7 °F 10.4 °F 54% 30.14 in 10.0 mi West 19.6 mph - N/A   Overcast
2:53 PM 24.8 °F 12.4 °F 10.4 °F 54% 30.14 in 10.0 mi West 15.0 mph 20.7 mph N/A   Overcast
3:13 PM 24.8 °F 12.4 °F 12.2 °F 59% 30.15 in 10.0 mi WNW 15.0 mph 21.9 mph N/A   Overcast
3:34 PM 24.8 °F 11.5 °F 12.2 °F 59% 30.16 in 10.0 mi WNW 17.3 mph - N/A   Overcast
3:54 PM 24.8 °F 11.1 °F 10.4 °F 54% 30.17 in 10.0 mi West 18.4 mph - N/A   Overcast
4:14 PM 24.8 °F 11.9 °F 10.4 °F 54% 30.20 in 10.0 mi West 16.1 mph 19.6 mph N/A   Overcast
5:14 PM 24.8 °F 12.4 °F 14.0 °F 64% 30.20 in 10.0 mi WNW 15.0 mph - N/A   Overcast
6:55 PM 24.8 °F 14.0 °F 14.0 °F 64% 30.19 in 10.0 mi WNW 11.5 mph - N/A   Overcast
7:15 PM 24.8 °F 15.3 °F 15.8 °F 69% 30.20 in 10.0 mi WNW 9.2 mph - N/A   Overcast
9:36 PM 24.8 °F 14.6 °F 17.6 °F 74% 30.21 in 10.0 mi West 10.4 mph - N/A Snow Light Snow
11:51 PM 24.8 °F 14.0 °F 17.6 °F 74% 30.22 in 7.0 mi NNW 11.5 mph - N/A Snow Light Snow